EW5649 Weather Reports


Display with metric or nautical units.
time (UTC)temp
F
wind
direction
speed
MPH
gust
MPH
rain 1hr
in
rain 24hr
in
rain mn
in
humidity
%
barometer
mb
20260507003516 58 135 1.0 2.0 0.00 0.00 0.00 85 1019.8
20260507003015 58 180 1.0 2.0 0.00 0.00 0.00 84 1019.7
20260507002516 58 45 1.0 2.0 0.00 0.00 0.00 84 1019.7
20260507002015 58 45 1.0 3.0 0.00 0.00 0.00 83 1019.7
20260507001516 58 45 1.0 3.0 0.00 0.00 0.00 84 1019.6
20260507001015 58 45 1.0 3.0 0.00 0.00 0.00 83 1019.6
20260507000515 58 45 1.0 2.0 0.00 0.00 0.00 84 1019.6
20260507000056 58 45 1.0 2.0 0.00 0.00 0.00 83 1019.7
20260506235556 58 45 1.0 2.0 0.00 0.00 0.00 83 1019.7
20260506235015 59 45 1.0 2.0 0.00 0.00 0.00 83 1019.7
20260506234556 59 45 1.0 2.0 0.00 0.00 0.00 84 1019.7
20260506234015 59 45 1.0 3.0 0.00 0.00 0.00 81 1019.6
20260506233555 59 0.0 2.0 0.00 0.00 0.00 82 1019.6
20260506233055 59 45 1.0 2.0 0.00 0.00 0.00 82 1019.7
20260506232515 59 45 1.0 2.0 0.00 0.00 0.00 82 1019.8
20260506232015 59 45 1.0 2.0 0.00 0.00 0.00 81 1019.9
20260506231556 59 0.0 2.0 0.00 0.00 0.00 82 1019.8
20260506231015 59 0.0 2.0 0.00 0.00 0.00 79 1019.8
20260506230516 59 0.0 2.0 0.00 0.00 0.00 81 1019.8
20260506230015 59 45 1.0 2.0 0.00 0.00 0.00 83 1019.8
20260506225515 59 45 1.0 2.0 0.00 0.00 0.00 82 1019.8
20260506225015 58 113 1.0 2.0 0.00 0.00 0.00 79 1019.8
20260506224515 58 113 1.0 2.0 0.00 0.00 0.00 81 1019.9
20260506224017 58 0.0 2.0 0.00 0.00 0.00 82 1019.9
20260506223517 58 45 1.0 1.0 0.00 0.00 0.00 82 1019.9
20260506223017 58 270 1.0 2.0 0.00 0.00 0.00 82 1019.9
20260506222517 58 135 1.0 2.0 0.00 0.00 0.00 81 1020.0
20260506222017 58 180 1.0 2.0 0.00 0.00 0.00 80 1019.9
20260506221518 59 135 1.0 2.0 0.00 0.00 0.00 81 1019.9
20260506221017 59 45 1.0 2.0 0.00 0.00 0.00 81 1019.9
20260506220517 59 180 1.0 2.0 0.00 0.00 0.00 82 1019.9
20260506220015 59 135 1.0 2.0 0.00 0.00 0.00 80 1020.0
20260506215517 59 45 1.0 2.0 0.00 0.00 0.00 81 1019.9
20260506215017 59 158 1.0 2.0 0.00 0.00 0.00 79 1020.0
20260506214517 59 180 1.0 3.0 0.00 0.00 0.00 78 1020.0
20260506214057 59 45 1.0 2.0 0.00 0.00 0.00 81 1020.0
20260506213517 59 180 1.0 2.0 0.00 0.00 0.00 83 1019.9
20260506213017 59 0.0 2.0 0.00 0.00 0.00 81 1020.0
20260506212517 59 180 1.0 2.0 0.00 0.00 0.00 81 1020.0
20260506212017 58 135 1.0 2.0 0.00 0.00 0.00 85 1020.1
20260506211517 58 113 1.0 2.0 0.00 0.00 0.00 84 1020.0
20260506211017 57 113 1.0 2.0 0.00 0.00 0.00 84 1020.0
20260506210517 57 135 1.0 2.0 0.00 0.00 0.00 82 1020.1
20260506210017 57 315 1.0 2.0 0.00 0.00 0.00 82 1020.1
20260506205517 57 45 1.0 2.0 0.00 0.00 0.00 82 1020.1
20260506205017 57 0.0 2.0 0.00 0.00 0.00 84 1020.1
20260506204517 57 315 1.0 2.0 0.00 0.00 0.00 84 1020.1
20260506204017 57 135 1.0 3.0 0.00 0.00 0.00 82 1020.1
20260506203517 57 135 1.0 2.0 0.00 0.00 0.00 84 1020.0
20260506203017 57 315 1.0 2.0 0.00 0.00 0.00 86 1019.9
20260506202557 57 315 1.0 2.0 0.00 0.00 0.00 86 1019.9
20260506202017 57 45 1.0 4.0 0.00 0.00 0.00 84 1019.8
20260506201557 57 315 1.0 2.0 0.00 0.00 0.00 85 1019.9
20260506201017 56 45 1.0 2.0 0.00 0.00 0.00 85 1019.9
20260506200517 56 45 1.0 2.0 0.00 0.00 0.00 85 1019.8
20260506200057 56 45 1.0 2.0 0.00 0.00 0.00 87 1019.8
20260506195517 56 315 1.0 2.0 0.00 0.00 0.00 87 1019.8
20260506195016 56 180 1.0 2.0 0.00 0.00 0.00 87 1019.7
20260506194557 55 45 1.0 2.0 0.00 0.00 0.00 88 1019.8
20260506194016 55 45 1.0 2.0 0.00 0.00 0.00 88 1019.8
20260506193517 55 270 1.0 3.0 0.00 0.00 0.00 87 1019.8
20260506193016 55 45 1.0 5.0 0.00 0.00 0.00 88 1019.7
20260506192517 55 45 1.0 2.0 0.00 0.00 0.00 89 1019.7
20260506192017 55 45 1.0 2.0 0.00 0.00 0.00 90 1019.7
20260506191517 54 0 1.0 2.0 0.00 0.00 0.00 90 1019.6
20260506191057 54 315 1.0 2.0 0.00 0.00 0.00 89 1019.7
20260506190516 54 315 1.0 3.0 0.00 0.00 0.00 91 1019.7
20260506190018 54 315 1.0 2.0 0.00 0.00 0.00 91 1019.6
20260506185517 54 315 1.0 3.0 0.00 0.00 0.00 91 1019.6
20260506185017 54 315 1.0 2.0 0.00 0.00 0.00 91 1019.6
20260506184516 54 315 1.0 2.0 0.00 0.00 0.00 91 1019.6
20260506184016 54 270 1.0 2.0 0.00 0.00 0.00 91 1019.6
20260506183517 54 315 1.0 2.0 0.00 0.00 0.00 92 1019.6
20260506183016 53 315 1.0 2.0 0.00 0.00 0.00 93 1019.5
20260506182517 53 315 1.0 3.0 0.00 0.00 0.00 92 1019.6
20260506182057 53 315 1.0 3.0 0.00 0.00 0.00 92 1019.5
20260506181556 53 45 1.0 3.0 0.00 0.00 0.00 93 1019.6
20260506181017 53 315 1.0 2.0 0.00 0.00 0.00 94 1019.5
20260506180516 53 315 1.0 2.0 0.00 0.00 0.00 93 1019.5
20260506180057 53 315 1.0 2.0 0.00 0.00 0.00 93 1019.4
20260506175516 53 315 1.0 4.0 0.00 0.00 0.00 93 1019.5
20260506175016 53 45 1.0 2.0 0.00 0.00 0.00 94 1019.5
20260506174517 53 315 1.0 2.0 0.00 0.00 0.00 94 1019.4
20260506174017 53 315 1.0 2.0 0.00 0.00 0.00 94 1019.5
20260506173516 53 45 1.0 3.0 0.00 0.00 0.00 94 1019.4
20260506173017 53 0 1.0 1.0 0.00 0.00 0.00 94 1019.3
20260506172516 53 45 1.0 3.0 0.00 0.00 0.00 95 1019.2
20260506172016 53 315 1.0 1.0 0.00 0.00 0.00 95 1019.1
20260506171556 53 315 1.0 2.0 0.00 0.00 0.00 95 1019.2
20260506171017 53 315 1.0 2.0 0.00 0.00 0.00 95 1019.2
20260506170516 53 315 1.0 2.0 0.00 0.00 0.00 95 1019.3
20260506170016 53 45 1.0 2.0 0.00 0.00 0.00 95 1019.3
20260506165517 53 315 1.0 2.0 0.00 0.00 0.00 95 1019.2
20260506165016 53 315 1.0 3.0 0.00 0.00 0.00 95 1019.3
20260506164516 53 45 1.0 2.0 0.00 0.00 0.00 95 1019.3
20260506164016 53 315 1.0 3.0 0.00 0.00 0.00 95 1019.2
20260506163557 53 45 1.0 5.0 0.00 0.00 0.00 96 1019.2
20260506163056 53 315 1.0 2.0 0.00 0.00 0.00 96 1019.2
20260506162517 53 315 1.0 2.0 0.00 0.00 0.00 96 1019.2
20260506162016 53 315 1.0 2.0 0.00 0.00 0.00 95 1019.2
20260506161517 53 315 1.0 3.0 0.00 0.00 0.00 95 1019.2
20260506161016 53 338 1.0 2.0 0.00 0.00 0.00 95 1019.1
20260506160517 53 315 1.0 2.0 0.00 0.00 0.00 95 1019.0
20260506160016 53 315 1.0 2.0 0.00 0.00 0.00 96 1019.0
20260506155516 53 315 1.0 2.0 0.00 0.00 0.00 96 1018.8
20260506155016 53 315 1.0 3.0 0.00 0.00 0.00 95 1018.8
20260506154517 53 315 1.0 2.0 0.00 0.00 0.00 96 1018.7
20260506154016 53 248 1.0 2.0 0.00 0.00 0.00 96 1018.6
20260506153516 53 45 1.0 2.0 0.00 0.00 0.00 96 1018.6
20260506153016 53 45 1.0 2.0 0.00 0.00 0.00 96 1018.7
20260506152517 53 315 1.0 2.0 0.00 0.00 0.00 96 1018.7
20260506152016 52 315 1.0 2.0 0.00 0.00 0.00 96 1018.7
20260506151516 53 315 1.0 3.0 0.00 0.00 0.00 96 1018.7
20260506151016 52 315 1.0 2.0 0.00 0.00 0.00 96 1018.7
20260506150516 52 0 1.0 3.0 0.00 0.00 0.00 96 1018.8
20260506150016 52 315 1.0 2.0 0.00 0.00 0.00 96 1018.8
20260506145516 52 315 1.0 3.0 0.00 0.00 0.00 96 1018.8
20260506145016 52 315 1.0 2.0 0.00 0.00 0.00 96 1018.8
20260506144556 52 315 1.0 2.0 0.00 0.00 0.00 96 1018.8
20260506144016 52 315 1.0 2.0 0.00 0.00 0.00 96 1018.9
20260506143556 52 45 1.0 2.0 0.00 0.00 0.00 96 1018.8
20260506143016 52 315 1.0 2.0 0.00 0.00 0.00 96 1018.5
20260506142516 52 45 1.0 2.0 0.00 0.00 0.00 96 1018.3
20260506142016 52 315 1.0 2.0 0.00 0.00 0.00 96 1018.5
20260506141557 52 315 1.0 2.0 0.00 0.00 0.00 96 1018.5
20260506141016 52 315 1.0 2.0 0.00 0.00 0.00 96 1018.7
20260506140516 52 45 1.0 2.0 0.00 0.00 0.00 96 1018.6
20260506140016 52 315 1.0 2.0 0.00 0.00 0.00 96 1018.7
20260506135516 52 0.0 2.0 0.00 0.00 0.00 96 1018.6
20260506135016 52 315 1.0 2.0 0.00 0.00 0.00 96 1018.6
20260506134516 52 0 1.0 2.0 0.00 0.00 0.00 96 1018.4
20260506134017 52 45 1.0 2.0 0.00 0.00 0.00 95 1018.4
20260506133517 52 0 1.0 1.0 0.00 0.00 0.00 96 1018.6
20260506133016 52 0 1.0 1.0 0.00 0.00 0.00 95 1018.4
20260506132516 52 45 1.0 1.0 0.00 0.00 0.00 95 1018.4
20260506132016 52 180 1.0 2.0 0.00 0.00 0.00 95 1018.6
20260506131515 52 315 1.0 2.0 0.00 0.00 0.00 95 1018.6
20260506131016 52 45 1.0 1.0 0.00 0.00 0.00 95 1018.4
20260506130515 52 180 1.0 2.0 0.00 0.00 0.00 95 1018.3
20260506130016 52 0 1.0 1.0 0.00 0.00 0.00 95 1018.3
20260506125516 52 45 1.0 2.0 0.00 0.00 0.00 95 1018.3
20260506125056 52 45 1.0 2.0 0.00 0.00 0.00 95 1018.2
20260506124516 52 45 1.0 1.0 0.00 0.00 0.00 94 1018.2
20260506124016 52 0 1.0 2.0 0.00 0.00 0.00 94 1018.2
20260506123515 52 315 1.0 2.0 0.00 0.00 0.00 94 1018.1
20260506123016 52 45 1.0 5.0 0.00 0.00 0.00 94 1018.0
20260506122555 53 315 1.0 2.0 0.00 0.00 0.00 95 1017.9
20260506122016 53 45 1.0 2.0 0.00 0.00 0.00 95 1017.8
20260506121515 53 45 1.0 1.0 0.00 0.00 0.00 95 1018.0
20260506121016 53 0.0 1.0 0.00 0.00 0.00 94 1018.0
20260506120516 53 0.0 1.0 0.00 0.00 0.00 95 1018.0
20260506120015 53 45 1.0 2.0 0.00 0.00 0.00 95 1017.9
20260506115515 53 45 1.0 2.0 0.00 0.00 0.00 95 1017.8
20260506115016 53 0.0 1.0 0.00 0.00 0.00 95 1017.8
20260506114515 53 0.0 1.0 0.00 0.00 0.00 95 1017.7
20260506114016 53 45 1.0 2.0 0.00 0.00 0.00 95 1017.7
20260506113515 52 0.0 1.0 0.00 0.00 0.00 95 1017.7
20260506113016 52 315 1.0 2.0 0.00 0.00 0.00 95 1017.6
20260506112555 53 45 1.0 2.0 0.00 0.00 0.00 95 1017.6
20260506112016 52 45 1.0 2.0 0.00 0.00 0.00 95 1017.6
20260506111515 52 315 1.0 1.0 0.00 0.00 0.00 94 1017.6
20260506111055 52 315 1.0 1.0 0.00 0.00 0.00 94 1017.6
20260506110556 52 315 1.0 2.0 0.00 0.00 0.00 95 1017.5
20260506110016 52 315 1.0 1.0 0.00 0.00 0.00 94 1017.5
20260506105516 52 45 1.0 2.0 0.00 0.00 0.00 95 1017.4
20260506105016 52 0.0 1.0 0.00 0.00 0.00 94 1017.4
20260506104556 52 45 1.0 3.0 0.00 0.00 0.00 95 1017.4
20260506104015 52 315 1.0 3.0 0.00 0.00 0.00 94 1017.4
20260506103515 52 45 1.0 2.0 0.00 0.00 0.00 95 1017.4
20260506103056 52 45 1.0 2.0 0.00 0.00 0.00 95 1017.4
20260506102515 52 45 1.0 2.0 0.00 0.00 0.00 94 1017.4
20260506102016 52 45 1.0 2.0 0.00 0.00 0.00 94 1017.4
20260506101516 53 45 1.0 1.0 0.00 0.00 0.00 95 1017.4
20260506101016 53 45 1.0 2.0 0.00 0.00 0.00 95 1017.4
20260506100515 52 45 1.0 2.0 0.00 0.00 0.00 95 1017.3
20260506100015 52 315 1.0 2.0 0.00 0.00 0.00 95 1017.3
20260506095515 52 45 1.0 2.0 0.00 0.00 0.00 95 1017.2
20260506095015 52 45 1.0 2.0 0.00 0.00 0.00 96 1017.2
20260506094555 52 45 1.0 2.0 0.00 0.00 0.00 96 1017.1
20260506094015 52 45 1.0 2.0 0.00 0.00 0.00 96 1017.1
20260506093515 52 45 1.0 2.0 0.00 0.00 0.00 96 1017.1
20260506093015 52 45 1.0 2.0 0.00 0.00 0.00 95 1017.0
20260506092515 52 45 1.0 2.0 0.00 0.00 0.00 95 1016.9
20260506092015 52 0 1.0 2.0 0.00 0.00 0.00 95 1016.8
20260506091515 52 45 1.0 2.0 0.00 0.00 0.00 95 1016.7
20260506091056 52 0.0 2.0 0.00 0.00 0.00 95 1016.6
20260506090515 53 0.0 1.0 0.00 0.00 0.00 95 1016.7
20260506090017 53 0.0 1.0 0.00 0.00 0.00 95 1016.6
20260506085517 53 0.0 1.0 0.00 0.00 0.00 95 1016.6
20260506085017 53 45 1.0 1.0 0.00 0.00 0.00 95 1016.6
20260506084517 53 45 1.0 2.0 0.00 0.00 0.00 95 1016.6
20260506084057 53 0.0 1.0 0.00 0.00 0.00 95 1016.5
20260506083517 53 45 1.0 1.0 0.00 0.00 0.00 95 1016.5
20260506083017 53 45 1.0 2.0 0.00 0.00 0.00 95 1016.4
20260506082557 53 0.0 1.0 0.00 0.00 0.00 95 1016.4
20260506082015 53 45 1.0 1.0 0.00 0.00 0.00 94 1016.2
20260506081517 54 0.0 1.0 0.00 0.00 0.00 94 1016.2
20260506081017 54 0.0 1.0 0.00 0.00 0.00 94 1016.3
20260506080517 54 0.0 1.0 0.00 0.00 0.00 93 1016.2
20260506073517 54 0.0 1.0 0.00 0.00 0.00 94 1016.1
20260506073018 54 0.0 1.0 0.00 0.00 0.00 93 1016.0
20260506072517 54 0.0 1.0 0.00 0.00 0.00 93 1016.0
20260506072017 54 0.0 1.0 0.00 0.00 0.00 93 1016.1
20260506071517 55 0.0 1.0 0.00 0.00 0.00 93 1016.0
20260506071017 55 0.0 1.0 0.00 0.00 0.00 93 1016.0
20260506070517 55 0.0 1.0 0.00 0.00 0.00 92 1016.0
20260506062016 56 45 1.0 1.0 0.00 0.00 0.00 90 1015.6
20260506061517 56 270 1.0 1.0 0.00 0.00 0.00 90 1015.7
20260506061016 56 45 1.0 1.0 0.00 0.00 0.00 90 1015.7
20260506060516 57 0 1.0 1.0 0.00 0.00 0.00 90 1015.6
20260506051016 59 0.0 1.0 0.00 0.00 0.00 87 1015.1
20260506050517 59 0.0 1.0 0.00 0.00 0.00 87 1015.1
20260506045017 59 0.0 1.0 0.00 0.00 0.00 86 1014.9
20260506044516 59 0.0 1.0 0.00 0.00 0.00 86 1015.0
20260506044016 59 0 1.0 2.0 0.00 0.00 0.00 86 1015.0
20260506043516 59 0.0 1.0 0.00 0.00 0.00 86 1014.8
20260506043016 59 0.0 1.0 0.00 0.00 0.00 86 1014.8
20260506042516 59 0.0 1.0 0.00 0.00 0.00 86 1014.8
20260506042016 60 0.0 1.0 0.00 0.00 0.00 86 1014.7
20260506041517 60 0.0 1.0 0.00 0.00 0.00 85 1014.8
20260506041016 60 0.0 1.0 0.00 0.00 0.00 85 1014.8
20260506040557 60 0.0 1.0 0.00 0.00 0.00 85 1014.7
20260506040016 60 45 1.0 1.0 0.00 0.00 0.00 85 1014.7
20260506035516 60 45 1.0 2.0 0.00 0.00 0.00 84 1014.6
20260506035016 60 45 1.0 1.0 0.00 0.00 0.00 84 1014.6
20260506034516 61 0 1.0 1.0 0.00 0.00 0.00 84 1014.6
20260506034016 61 0 1.0 2.0 0.00 0.00 0.00 83 1014.5
20260506033516 61 45 1.0 2.0 0.00 0.00 0.00 83 1014.5
20260506033016 61 45 1.0 2.0 0.00 0.00 0.00 84 1014.5
20260506032516 61 0 1.0 2.0 0.00 0.00 0.00 83 1014.4
20260506032057 61 0 1.0 1.0 0.00 0.00 0.00 82 1014.4
20260506031517 61 315 1.0 2.0 0.00 0.00 0.00 83 1014.4
20260506031056 62 315 1.0 2.0 0.00 0.00 0.00 82 1014.3
20260506030556 62 0.0 1.0 0.00 0.00 0.00 82 1014.3
20260506030016 62 0.0 1.0 0.00 0.00 0.00 81 1014.2
20260506025517 62 0.0 1.0 0.00 0.00 0.00 81 1014.2
20260506025016 62 0.0 1.0 0.00 0.00 0.00 80 1014.2
20260506024516 63 0.0 1.0 0.00 0.00 0.00 80 1014.2
20260506024016 63 0.0 1.0 0.00 0.00 0.00 80 1014.1
20260506023516 63 45 1.0 1.0 0.00 0.00 0.00 80 1014.1
20260506023056 63 45 1.0 1.0 0.00 0.00 0.00 80 1014.1
20260506022516 63 45 1.0 2.0 0.00 0.00 0.00 79 1014.0
20260506022016 64 315 1.0 1.0 0.00 0.00 0.00 79 1014.1
20260506021516 64 270 1.0 2.0 0.00 0.00 0.00 78 1014.1
20260506021016 64 45 1.0 2.0 0.00 0.00 0.00 78 1014.1
20260506020516 64 0 1.0 2.0 0.00 0.00 0.00 78 1014.1
20260506020016 64 315 1.0 2.0 0.00 0.00 0.00 78 1014.1
20260506015516 65 315 1.0 2.0 0.00 0.00 0.00 77 1014.1
20260506015016 65 315 1.0 2.0 0.00 0.00 0.00 76 1014.0
20260506014516 65 270 1.0 1.0 0.00 0.00 0.00 76 1014.0
20260506014016 66 315 1.0 3.0 0.00 0.00 0.00 75 1014.1
20260506013517 66 45 1.0 1.0 0.00 0.00 0.00 74 1014.1
20260506013056 66 45 1.0 1.0 0.00 0.00 0.00 73 1014.1
20260506012515 66 0 1.0 2.0 0.00 0.00 0.00 73 1014.1
20260506012016 67 45 1.0 2.0 0.00 0.00 0.00 70 1014.1
20260506011516 67 315 1.0 2.0 0.00 0.00 0.00 71 1014.1
20260506011016 67 45 1.0 2.0 0.00 0.00 0.00 69 1014.0
20260506010516 68 45 1.0 3.0 0.00 0.00 0.00 67 1014.1
20260506010016 68 135 1.0 4.0 0.00 0.00 0.00 67 1014.2
20260506005516 69 135 1.0 4.0 0.00 0.00 0.00 66 1014.1
20260506005016 69 113 1.0 3.0 0.00 0.00 0.00 64 1014.1
20260506004516 70 0.0 2.0 0.00 0.00 0.00 65 1014.2
20260506004056 70 0.0 1.0 0.00 0.00 0.00 63 1014.2